Latest Weather Observations for Sydney Olympic Park

IDN60901

Issued at 11:55 pm EDT Thursday 30 October 2014 (issued every 10 minutes, with the page automatically refreshed every 10 minutes)

About weather observations | Map of Sydney area stations | Latest observations for Sydney area | Other Formats
Station Details ID: 066212 Name: SYDNEY OLYMPIC PARK AWS (ARCHERY CENTRE) Lat: -33.83 Lon: 151.07 Height: 4.0 m
Data from the previous 72 hours. | See also: Recent months at Sydney Olympic Park
Date/Time
EDT
Tmp

°C
App
Tmp
°C
Dew
Point
°C
Rel
Hum
%
Delta-T

°C
Wind Press
QNH
hPa
Press
MSL
hPa
Rain
since
9 am
mm
Dir
 
Spd
km/h
Gust
km/h
Spd
kts
Gust
kts
30/11:30pm 17.2 18.5 14.1 82 1.8 CALM 0 0 0 0 - - 0.0
30/11:00pm 18.4 19.6 13.9 75 2.6 CALM 0 0 0 0 - - 0.0
30/10:30pm 19.9 21.0 13.4 66 3.7 CALM 0 0 0 0 - - 0.0
30/10:00pm 21.6 21.1 12.5 56 5.2 NE 7 13 4 7 - - 0.0
30/09:30pm 22.0 21.0 11.1 50 6.0 ENE 7 13 4 7 - - 0.0
30/09:00pm 22.3 20.6 9.8 45 6.8 E 9 15 5 8 - - 0.0
30/08:30pm 22.7 21.3 9.5 43 7.1 E 7 11 4 6 - - 0.0
30/08:00pm 23.4 21.7 9.8 42 7.4 ENE 9 15 5 8 - - 0.0
30/07:30pm 24.4 22.4 10.3 41 7.8 ENE 11 15 6 8 - - 0.0
30/07:00pm 25.4 23.5 10.4 39 8.3 ENE 11 22 6 12 - - 0.0
30/06:30pm 26.7 24.5 10.8 37 9.0 NE 13 24 7 13 - - 0.0
30/06:00pm 28.1 26.7 10.8 34 9.8 ENE 9 17 5 9 - - 0.0
30/05:30pm 29.5 27.6 9.1 28 11.3 NE 9 17 5 9 - - 0.0
30/05:00pm 31.3 29.4 7.7 23 12.9 WNW 7 20 4 11 - - 0.0
30/04:30pm 31.2 29.2 7.0 22 13.1 NW 7 13 4 7 - - 0.0
30/04:00pm 31.7 29.7 8.7 24 12.8 W 9 17 5 9 - - 0.0
30/03:30pm 30.2 27.6 6.1 22 12.8 WNW 9 17 5 9 - - 0.0
30/03:00pm 30.6 27.8 7.1 23 12.7 W 11 22 6 12 - - 0.0
30/02:30pm 30.3 28.2 8.1 25 12.2 WNW 9 20 5 11 - - 0.0
30/02:00pm 30.2 28.1 9.7 28 11.5 WNW 11 22 6 12 - - 0.0
30/01:30pm 29.4 25.8 10.0 30 10.9 NNW 19 20 10 11 - - 0.0
30/01:00pm 28.7 25.2 7.3 26 11.5 WNW 15 22 8 12 - - 0.0
30/12:30pm 28.6 27.3 9.8 31 10.5 WSW 7 13 4 7 - - 0.0
30/12:00pm 27.4 26.0 11.0 36 9.3 WNW 9 17 5 9 - - 0.0
30/11:30am 26.6 25.1 10.7 37 8.9 W 9 19 5 10 - - 0.0
30/11:00am 25.7 25.9 14.2 49 6.8 WSW 6 11 3 6 - - 0.0
30/10:30am 23.8 23.8 15.3 59 5.1 NNW 9 13 5 7 - - 0.0
30/10:00am 23.4 23.8 16.4 64 4.3 NW 9 15 5 8 - - 0.0
30/09:30am 21.8 22.1 16.1 70 3.4 NW 9 13 5 7 - - 0.0
30/09:00am 20.4 21.2 16.4 78 2.4 WNW 7 13 4 7 - - 0.0
30/08:30am 18.7 18.9 15.8 83 1.7 NW 9 13 5 7 - - 0.0
30/08:00am 17.6 18.5 16.5 93 0.7 WNW 7 11 4 6 - - 0.0
30/07:30am 16.2 16.5 15.9 98 0.2 WNW 9 11 5 6 - - 0.0
30/07:00am 15.0 15.2 14.7 98 0.2 NW 7 9 4 5 - - 0.0
30/06:30am 13.7 14.0 13.4 98 0.2 WNW 4 7 2 4 - - 0.0
30/06:07am 13.5 14.5 13.2 98 0.2 CALM 0 0 0 0 - - 0.0
30/06:00am 13.4 14.4 13.1 98 0.2 CALM 0 0 0 0 - - 0.0
30/05:54am 13.4 14.4 13.1 98 0.2 CALM 0 0 0 0 - - 0.0
30/05:30am 13.4 14.4 13.1 98 0.2 CALM 0 0 0 0 - - 0.0
30/05:00am 14.0 15.2 13.7 98 0.2 CALM 0 0 0 0 - - 0.0
30/04:52am 14.0 15.2 13.7 98 0.2 CALM 0 0 0 0 - - 0.0
30/04:37am 13.9 15.0 13.6 98 0.2 CALM 0 0 0 0 - - 0.0
30/04:30am 14.1 15.3 13.8 98 0.2 CALM 0 0 0 0 - - 0.0
30/04:00am 14.3 15.6 14.0 98 0.2 CALM 0 0 0 0 - - 0.0
30/03:30am 14.6 16.0 14.3 98 0.2 CALM 0 0 0 0 - - 0.0
30/03:00am 14.7 16.1 14.4 98 0.2 CALM 0 0 0 0 - - 0.0
30/02:30am 15.0 16.5 14.7 98 0.2 CALM 0 0 0 0 - - 0.0
30/02:00am 15.2 16.8 14.9 98 0.2 NNW 0 0 0 0 - - 0.0
30/01:30am 15.7 17.4 15.1 96 0.3 CALM 0 0 0 0 - - 0.0
30/01:00am 16.1 17.8 15.1 94 0.6 CALM 0 0 0 0 - - 0.0
30/12:30am 16.8 18.5 15.3 91 0.9 CALM 0 2 0 1 - - 0.0
30/12:00am 17.2 17.7 15.0 87 1.3 NNE 6 9 3 5 - - 0.0
 
Date/Time
EDT
Tmp

°C
App
Tmp
°C
Dew
Point
°C
Rel
Hum
%
Delta-T

°C
Wind Press
QNH
hPa
Press
MSL
hPa
Rain
since
9 am
mm
Dir
 
Spd
km/h
Gust
km/h
Spd
kts
Gust
kts
29/11:30pm 17.8 18.4 15.2 85 1.5 NE 6 11 3 6 - - 0.0
29/11:00pm 18.0 18.6 15.3 84 1.6 NNE 6 11 3 6 - - 0.0
29/10:30pm 18.3 18.7 15.4 83 1.7 NNE 7 13 4 7 - - 0.0
29/10:00pm 18.5 18.9 15.4 82 1.8 NE 7 11 4 6 - - 0.0
29/09:30pm 18.8 19.5 15.7 82 1.8 NE 6 13 3 7 - - 0.0
29/09:00pm 18.8 19.3 15.5 81 1.9 ENE 7 13 4 7 - - 0.0
29/08:30pm 19.0 19.5 15.5 80 2.1 ENE 7 15 4 8 - - 0.0
29/08:00pm 19.3 19.4 15.4 78 2.3 ENE 9 17 5 9 - - 0.0
29/07:30pm 19.5 18.8 15.4 77 2.4 E 13 22 7 12 - - 0.0
29/07:00pm 19.8 19.0 15.0 74 2.8 ENE 13 22 7 12 - - 0.0
29/06:30pm 20.1 19.0 15.3 74 2.8 E 15 26 8 14 - - 0.0
29/06:00pm 20.8 20.0 15.1 70 3.4 ENE 13 22 7 12 - - 0.0
29/05:30pm 21.2 19.7 15.3 69 3.5 E 17 24 9 13 - - 0.0
29/05:00pm 21.7 20.2 15.3 67 3.8 NE 17 24 9 13 - - 0.0
29/04:30pm 21.7 18.9 15.3 67 3.8 E 24 35 13 19 - - 0.0
29/04:00pm 22.3 20.5 15.9 67 3.9 E 20 32 11 17 - - 0.0
29/03:30pm 22.0 20.0 15.4 66 3.9 E 20 32 11 17 - - 0.0
29/03:00pm 22.5 20.8 16.3 68 3.8 E 20 32 11 17 - - 0.0
29/02:30pm 22.4 20.0 15.3 64 4.2 E 22 32 12 17 - - 0.0
29/02:00pm 22.9 21.1 16.0 65 4.2 E 20 32 11 17 - - 0.0
29/01:30pm 22.5 20.0 14.1 59 4.9 E 20 26 11 14 - - 0.0
29/11:00am 23.0 21.2 10.8 46 6.7 ESE 11 17 6 9 - - 0.0
29/10:30am 22.8 21.4 9.6 43 7.1 SE 7 13 4 7 - - 0.0
29/10:00am 22.0 20.1 9.2 44 6.8 S 9 17 5 9 - - 0.0
29/09:30am 21.6 19.2 8.5 43 6.9 SSW 11 15 6 8 - - 0.0
29/09:00am 20.7 18.2 8.0 44 6.6 SW 11 17 6 9 - - 0.0
29/08:30am 20.4 18.9 9.3 49 5.9 S 7 9 4 5 - - 0.0
29/08:00am 19.5 18.1 8.8 50 5.6 SE 6 11 3 6 - - 0.0
29/07:30am 18.1 17.6 10.7 62 4.0 ENE 4 7 2 4 - - 0.0
29/07:00am 15.2 15.6 12.5 84 1.5 WNW 2 6 1 3 - - 0.0
29/06:30am 12.8 13.3 11.5 92 0.7 CALM 0 0 0 0 - - 0.0
29/06:00am 12.2 12.6 11.1 93 0.6 CALM 0 0 0 0 - - 0.0
29/05:30am 12.6 12.7 10.0 84 1.3 CALM 0 2 0 1 - - 0.0
29/05:00am 12.8 13.3 11.7 93 0.6 CALM 0 0 0 0 - - 0.0
29/04:30am 12.8 13.3 11.5 92 0.7 CALM 0 0 0 0 - - 0.0
29/04:00am 12.9 13.3 11.1 89 0.9 CALM 0 6 0 3 - - 0.0
29/03:30am 13.4 13.9 11.6 89 1.0 CALM 0 0 0 0 - - 0.0
29/03:00am 13.5 13.9 11.2 86 1.2 CALM 0 0 0 0 - - 0.0
29/02:30am 14.0 14.3 11.0 82 1.6 CALM 0 0 0 0 - - 0.0
29/02:00am 14.0 13.9 10.8 81 1.7 WNW 2 9 1 5 - - 0.0
29/01:30am 15.0 15.5 11.6 80 1.8 CALM 0 0 0 0 - - 0.0
29/01:00am 16.2 15.8 11.2 72 2.7 WSW 4 9 2 5 - - 0.0
29/12:30am 15.7 14.7 10.2 70 2.9 SW 6 7 3 4 - - 0.0
29/12:00am 16.0 15.9 9.4 65 3.4 CALM 0 6 0 3 - - 0.0
 
Date/Time
EDT
Tmp

°C
App
Tmp
°C
Dew
Point
°C
Rel
Hum
%
Delta-T

°C
Wind Press
QNH
hPa
Press
MSL
hPa
Rain
since
9 am
mm
Dir
 
Spd
km/h
Gust
km/h
Spd
kts
Gust
kts
28/11:30pm 16.1 14.8 9.3 64 3.5 NNE 6 7 3 4 - - 0.0
28/11:00pm 16.1 16.0 9.5 65 3.4 CALM 0 7 0 4 - - 0.0
28/10:30pm 17.2 17.1 9.4 60 4.1 CALM 0 0 0 0 - - 0.0
28/10:00pm 19.4 18.1 5.8 41 6.7 WNW 2 7 1 4 - - 0.0
28/09:30pm 20.1 17.0 5.7 39 7.1 WNW 11 15 6 8 - - 0.0
28/09:00pm 21.1 18.9 5.5 36 7.7 W 6 11 3 6 - - 0.0
28/08:30pm 22.7 19.5 5.2 32 8.7 WNW 11 20 6 11 - - 0.0
28/08:00pm 23.2 19.6 5.1 31 9.0 WNW 13 22 7 12 - - 0.0
28/07:30pm 24.0 19.8 3.9 27 9.9 WNW 15 24 8 13 - - 0.0
28/07:00pm 25.1 20.8 5.3 28 10.0 WNW 17 33 9 18 - - 0.0
28/06:30pm 26.5 22.2 3.1 22 11.5 W 15 30 8 16 - - 0.0
28/06:00pm 27.1 22.0 2.9 21 11.9 W 19 35 10 19 - - 0.0
28/05:30pm 27.8 22.8 3.5 21 12.1 W 19 28 10 15 - - 0.0
28/05:00pm 28.3 23.9 4.6 22 12.1 W 17 32 9 17 - - 0.0
28/04:30pm 28.3 24.1 7.5 27 11.2 WNW 19 26 10 14 - - 0.0
28/04:00pm 27.9 23.0 4.9 23 11.8 WNW 20 33 11 18 - - 0.0
28/03:30pm 28.1 23.1 3.7 21 12.3 WNW 19 33 10 18 - - 0.0
28/03:00pm 27.8 23.1 7.6 28 10.8 WNW 22 32 12 17 - - 0.0
28/02:30pm 27.3 22.0 3.1 21 12.0 W 20 37 11 20 - - 0.0
28/02:00pm 25.7 21.0 3.0 23 11.1 W 17 33 9 18 - - 0.0
28/01:30pm 24.9 21.6 4.6 27 10.2 W 11 15 6 8 - - 0.0
28/01:00pm 24.2 21.0 5.1 29 9.6 WNW 11 17 6 9 - - 0.0
28/12:30pm 24.0 19.7 3.3 26 10.0 W 15 24 8 13 - - 0.0
28/12:00pm 24.1 19.9 4.0 27 9.9 W 15 22 8 12 - - 0.0
28/11:30am 24.1 21.3 5.0 29 9.6 NW 9 17 5 9 - - 0.0
28/11:00am 22.9 18.2 3.4 28 9.4 WNW 17 26 9 14 - - 0.0
28/10:30am 23.4 18.9 6.2 33 8.8 WNW 19 30 10 16 - - 0.0
28/10:00am 22.2 17.6 5.6 34 8.3 NW 19 26 10 14 - - 0.0
28/09:30am 22.0 17.9 6.3 36 8.0 WNW 17 33 9 18 - - 0.0
28/09:00am 21.2 17.7 7.4 41 7.1 WNW 15 22 8 12 - - 0.0
28/08:30am 19.7 16.6 10.4 55 5.0 WNW 17 24 9 13 - - 0.0
28/08:00am 18.3 18.2 13.2 72 2.9 WNW 6 9 3 5 - - 0.0
28/07:30am 16.4 16.7 13.5 83 1.6 WNW 4 9 2 5 - - 0.0
28/07:00am 14.9 16.1 13.9 94 0.6 CALM 0 0 0 0 - - 0.0
28/06:30am 13.1 13.9 12.6 97 0.3 CALM 0 0 0 0 - - 0.0
28/06:00am 13.3 13.5 11.9 91 0.7 NNW 2 7 1 4 - - 0.0
28/05:30am 14.7 14.7 13.6 93 0.6 NNE 6 13 3 7 - - 0.0
28/05:00am 14.3 14.4 13.8 97 0.3 NE 6 9 3 5 - - 0.0
28/04:30am 14.1 14.1 13.6 97 0.3 N 6 9 3 5 - - 0.0
28/04:00am 14.4 14.5 13.9 97 0.3 NNE 6 7 3 4 - - 0.0
28/03:30am 14.8 15.4 14.2 96 0.3 NNE 4 11 2 6 - - 0.0
28/03:00am 14.7 15.2 13.9 95 0.4 E 4 7 2 4 - - 0.0
28/02:30am 15.3 16.4 13.5 89 1.0 CALM 0 0 0 0 - - 0.0
28/02:00am 15.9 16.4 13.9 88 1.1 SE 4 11 2 6 - - 0.0
28/01:30am 16.9 16.5 14.2 84 1.5 S 9 15 5 8 - - 0.0
28/01:00am 17.2 16.5 14.3 83 1.7 SSE 11 17 6 9 - - 0.0
28/12:30am 17.5 16.3 14.0 80 2.0 SE 13 20 7 11 - - 0.0
28/12:00am 18.0 16.6 14.5 80 2.0 S 15 24 8 13 - - 0.0

Latest Capital City Observations: Canberra | Sydney | Melbourne | Brisbane | Adelaide | Perth | Hobart | Darwin

Other Formats:

Comma delimited format used in spreadsheet applications
http://www.bom.gov.au/fwo/IDN60901/IDN60901.95765.axf

JavaScript Object Notation format (JSON) in row-major order
http://www.bom.gov.au/fwo/IDN60901/IDN60901.95765.json